Regional Weather Roundup
Issued by NWS Albany, NY

Home | Current Version | Previous Version | Text Only | Print | Product List | Glossary On
Versions: 1 2 3 4 5 6 7 8 9 10 11 12 13 14 15 16 17 18 19 20 21 22 23 24 25 26 27
000
ASUS41 KALY 210310
RWRALY

NEW YORK STATE HOURLY WEATHER ROUNDUP
NATIONAL WEATHER SERVICE ALBANY NY
1000 PM EST FRI JAN 20 2017

NOTE: "FAIR" INDICATES FEW OR NO CLOUDS BELOW 12,000 FEET WITH NO
SIGNIFICANT WEATHER AND/OR NO OBSTRUCTIONS TO VISIBILITY.

NYZ032-033-038>043-046>054-057>066-NYZ062>081-082-084-210400-
EAST


CITY           SKY/WX    TMP DP  RH WIND       PRES   REMARKS
ALBANY         CLOUDY    39  33  79 S9        29.88F WCI  33
GLENS FALLS    CLOUDY    34  30  85 CALM      29.88S
POUGHKEEPSIE   LGT RAIN  37  36  96 CALM      29.92S FOG
NEWBURGH       LGT RAIN  37  37 100 CALM      29.93R FOG
MONTGOMERY     LGT RAIN  38  37  97 CALM      29.90S FOG
WHITE PLAINS   LGT RAIN  38  36  92 SE3       29.91S FOG
ISLIP          CLOUDY    41  40  96 E3        29.92S
NEW YORK CITY  LGT RAIN  43  39  86 SE7       29.92F FOG
CENTRAL PARK   CLOUDY    41  40  96 CALM      29.94F FOG
$$

NYZ005>009-017-018-044>046-055-056-210400-
CENTRAL


CITY           SKY/WX    TMP DP  RH WIND       PRES   REMARKS
FULTON         LGT RAIN  37  36  96 SE5       29.79F FOG     WCI  33
SYRACUSE       CLOUDY    37  37 100 E5        29.80S FOG     WCI  33
ROME           CLOUDY    35  35 100 E8        29.84F WCI  29
ELMIRA         CLOUDY    39  37  92 CALM      29.81R
BINGHAMTON     FOG       35  35 100 S6        29.81S VSB 3/4 WCI  30
MONTICELLO     CLOUDY    34  34 100 E3        29.88F VSB 1/2
$$

NYZ026>034-041>043-087-210400-
NORTH


CITY           SKY/WX    TMP DP  RH WIND       PRES   REMARKS
WATERTOWN      CLOUDY    38  36  92 CALM      29.79S
FORT DRUM      NOT AVBL
OGDENSBURG     MOCLDY    35  32  90 CALM      29.81S
MASSENA        CLOUDY    34  31  88 NE5       29.83F WCI  30
SARANAC LAKE   CLOUDY    32  30  92 CALM      29.77S
PLATTSBURGH    CLOUDY    31  29  92 CALM      29.84S
$$

NYZ001>004-010>016-019>021-085-210400-
WEST


CITY           SKY/WX    TMP DP  RH WIND       PRES   REMARKS
NIAGARA FALLS  CLOUDY    45  41  86 SW9       29.74S FOG
BUFFALO        CLOUDY    47  45  93 SW13      29.75R FOG
DUNKIRK        FOG       45  45 100 SW7       29.78R VSB 1/2
JAMESTOWN      CLOUDY    46  45  93 SW6       29.77R VSB 3/4
WELLSVILLE     CLOUDY    43  41  93 SW8       29.78R FOG
ROCHESTER      CLOUDY    43  42  97 SE3       29.77R
PENN YAN       CLOUDY    41  36  82 S5        29.79R
$$

             KEY
       WCI = WIND CHILL INDEX
       VSB = VISIBILITY
       HX  = HEAT INDEX
$$




USA.gov is the U.S. government's official web portal to all federal, state and local government web resources and services.